User: anonymous
Location: Melbourne
(37.8170°S, 144.9670°E)
Time: 21:41:15
(UTC+10:00)
Language:

ERBS - Orbit

View from above orbital plane
View from above orbital plane
View from above satellite
View from above satellite

Ground track
Ground track

The orbit data is extracted from the following two-line orbital elements,

1 15354U 84108B   14260.04280696  .00008144  00000-0  29181-3 0  5792
2 15354 057.0141 107.0840 0018158 026.6467 333.5511 15.29508922643672
Epoch (UTC): 17 September 2014 01:01:38
Eccentricity: 0.0018158
inclination: 57.0141°
perigee height: 465 km
apogee height: 490 km
right ascension of ascending node: 107.0840°
argument of perigee: 26.6467°
revolutions per day: 15.29508922
mean anomaly at epoch: 333.5511°
orbit number at epoch: 64367

The dashed part of the orbit path shows where the satellite is in the earth's shadow,  

DLR